JBU1281 KJFK-KBOS

Flight info

Callsign JBU1281
Flight time 0h 28m
Altitude 21000
Route CRI CRI CLIMB MERIT ROBUCK3
Aircraft A320/M-SDE3FGHIRWY/LB1

Departure

Time 2026-05-07 16:20
Airport John F. Kennedy International Airport (KJFK)

Arrival

Time 2026-05-07 16:48
Airport Boston Logan International Airport (KBOS)
Time Latitude Longitude Altitude Speed Heading
2026-05-07 15:57 40.64541 -73.77289 20 ft 0 kts
2026-05-07 16:10 40.64529 -73.77289 20 ft 2 kts
2026-05-07 16:10 40.64513 -73.77290 22 ft 2 kts
2026-05-07 16:10 40.64497 -73.77290 22 ft 2 kts
2026-05-07 16:10 40.64493 -73.77290 22 ft 0 kts
2026-05-07 16:12 40.64500 -73.77288 22 ft 5 kts 16°
2026-05-07 16:12 40.64491 -73.77241 21 ft 7 kts 135°
2026-05-07 16:12 40.64454 -73.77189 20 ft 9 kts 126°
2026-05-07 16:13 40.64400 -73.77145 20 ft 10 kts 189°
2026-05-07 16:13 40.64351 -73.77213 21 ft 9 kts 200°
2026-05-07 16:13 40.64277 -73.77237 20 ft 17 kts 198°
2026-05-07 16:13 40.64140 -73.77330 20 ft 26 kts 211°
2026-05-07 16:14 40.63981 -73.77456 20 ft 29 kts 211°
2026-05-07 16:14 40.63791 -73.77607 20 ft 29 kts 209°
2026-05-07 16:14 40.63613 -73.77744 20 ft 31 kts 211°
2026-05-07 16:14 40.63469 -73.77857 22 ft 20 kts 210°
2026-05-07 16:15 40.63352 -73.77946 22 ft 19 kts 210°
2026-05-07 16:15 40.63229 -73.78007 24 ft 19 kts 191°
2026-05-07 16:15 40.63110 -73.78041 23 ft 17 kts 204°
2026-05-07 16:15 40.62998 -73.78126 22 ft 19 kts 210°
2026-05-07 16:16 40.62897 -73.78206 22 ft 11 kts 211°
2026-05-07 16:16 40.62824 -73.78263 23 ft 13 kts 210°
2026-05-07 16:16 40.62749 -73.78321 24 ft 11 kts 210°
2026-05-07 16:16 40.62686 -73.78355 25 ft 6 kts 186°
2026-05-07 16:17 40.62659 -73.78341 26 ft 0 kts 138°
2026-05-07 16:17 40.62657 -73.78339 26 ft 1 kts 137°
2026-05-07 16:17 40.62654 -73.78332 26 ft 1 kts 123°
2026-05-07 16:18 40.62648 -73.78321 27 ft 2 kts 123°
2026-05-07 16:18 40.62640 -73.78305 27 ft 3 kts 123°
2026-05-07 16:18 40.62631 -73.78254 27 ft 8 kts 86°
2026-05-07 16:18 40.62673 -73.78194 32 ft 11 kts 29°
2026-05-07 16:19 40.62770 -73.78119 25 ft 34 kts 31°
2026-05-07 16:19 40.63178 -73.77806 25 ft 98 kts 30°
2026-05-07 16:19 40.63907 -73.77229 21 ft 143 kts 31°
2026-05-07 16:19 40.64754 -73.76447 424 ft 144 kts 30°
2026-05-07 16:20 40.65496 -73.75575 920 ft 149 kts 60°
2026-05-07 16:20 40.65698 -73.74451 1047 ft 169 kts 102°
2026-05-07 16:20 40.65145 -73.73213 1785 ft 141 kts 131°
2026-05-07 16:20 40.64698 -73.71968 1790 ft 191 kts 82°
2026-05-07 16:21 40.65332 -73.70253 2071 ft 227 kts 48°
2026-05-07 16:21 40.66240 -73.68452 2824 ft 249 kts 69°
2026-05-07 16:21 40.66780 -73.66267 3882 ft 254 kts 64°
2026-05-07 16:21 40.67906 -73.64509 4815 ft 254 kts 31°
2026-05-07 16:22 40.69508 -73.63315 5288 ft 272 kts 20°
2026-05-07 16:22 40.71282 -73.62313 6002 ft 282 kts 18°
2026-05-07 16:22 40.73120 -73.61297 6737 ft 290 kts 18°
2026-05-07 16:22 40.74994 -73.60186 7466 ft 299 kts 20°
2026-05-07 16:23 40.76893 -73.58963 8187 ft 307 kts 21°
2026-05-07 16:23 40.78819 -73.57644 8904 ft 316 kts 22°
2026-05-07 16:23 40.80751 -73.56264 9620 ft 323 kts 22°
2026-05-07 16:23 40.82746 -73.54806 10261 ft 332 kts 22°
2026-05-07 16:24 40.84849 -73.53262 10502 ft 356 kts 23°
2026-05-07 16:24 40.87082 -73.51623 10706 ft 377 kts 24°
2026-05-07 16:24 40.89407 -73.49910 11249 ft 386 kts 24°
2026-05-07 16:24 40.91774 -73.48157 11870 ft 392 kts 24°
2026-05-07 16:25 40.94171 -73.46382 12531 ft 397 kts 24°
2026-05-07 16:25 40.96577 -73.44604 13168 ft 403 kts 23°
2026-05-07 16:25 40.99040 -73.42787 13811 ft 408 kts 23°
2026-05-07 16:25 41.01540 -73.40942 14414 ft 413 kts 23°
2026-05-07 16:26 41.04068 -73.39079 15046 ft 416 kts 23°
2026-05-07 16:26 41.06612 -73.37205 15670 ft 419 kts 23°
2026-05-07 16:26 41.09179 -73.35308 16283 ft 422 kts 23°
2026-05-07 16:26 41.10908 -73.34028 16683 ft 424 kts 23°
2026-05-07 16:27 41.14322 -73.31495 17490 ft 429 kts 23°
2026-05-07 16:27 41.16943 -73.29547 18107 ft 432 kts 22°
2026-05-07 16:27 41.19581 -73.27592 18651 ft 436 kts 22°
2026-05-07 16:27 41.22246 -73.25620 19181 ft 441 kts 22°
2026-05-07 16:28 41.24939 -73.23627 19728 ft 445 kts 22°
2026-05-07 16:28 41.27670 -73.21602 20287 ft 450 kts 22°
2026-05-07 16:28 41.30433 -73.19551 20746 ft 458 kts 22°
2026-05-07 16:28 41.33193 -73.17247 20919 ft 481 kts 32°
2026-05-07 16:29 41.35710 -73.14146 20931 ft 505 kts 44°
2026-05-07 16:29 41.37824 -73.10346 20904 ft 526 kts 60°
2026-05-07 16:29 41.39149 -73.05756 20919 ft 538 kts 79°
2026-05-07 16:29 41.39820 -73.00802 20912 ft 548 kts 83°
2026-05-07 16:30 41.40363 -72.95728 20915 ft 557 kts 85°
2026-05-07 16:30 41.40850 -72.90597 21314 ft 556 kts 85°
2026-05-07 16:30 41.41330 -72.85525 21820 ft 544 kts 85°
2026-05-07 16:30 41.41799 -72.80616 21809 ft 521 kts 85°
2026-05-07 16:31 41.42258 -72.75972 21811 ft 501 kts 85°
2026-05-07 16:31 41.42723 -72.71449 21808 ft 484 kts 85°
2026-05-07 16:31 41.43185 -72.67084 21808 ft 469 kts 85°
2026-05-07 16:31 41.43639 -72.62825 21791 ft 460 kts 85°
2026-05-07 16:32 41.44083 -72.58597 21795 ft 458 kts 85°
2026-05-07 16:32 41.44521 -72.54393 21795 ft 457 kts 85°
2026-05-07 16:32 41.44957 -72.50175 21794 ft 457 kts 85°
2026-05-07 16:32 41.45384 -72.46020 21791 ft 456 kts 86°
2026-05-07 16:33 41.45812 -72.41835 21793 ft 456 kts 86°
2026-05-07 16:33 41.46242 -72.37632 21585 ft 456 kts 85°
2026-05-07 16:33 41.46674 -72.33385 20726 ft 465 kts 85°
2026-05-07 16:33 41.47102 -72.29161 20685 ft 450 kts 85°
2026-05-07 16:34 41.47524 -72.25044 20864 ft 446 kts 86°
2026-05-07 16:34 41.48139 -72.20982 20882 ft 449 kts 74°
2026-05-07 16:34 41.49305 -72.17121 20685 ft 449 kts 64°
2026-05-07 16:34 41.50664 -72.13419 20434 ft 447 kts 64°
2026-05-07 16:35 41.52032 -72.09715 20186 ft 444 kts 64°
2026-05-07 16:35 41.53396 -72.06020 19942 ft 442 kts 64°
2026-05-07 16:35 41.54749 -72.02333 19696 ft 440 kts 64°
2026-05-07 16:35 41.56072 -71.98655 19466 ft 437 kts 66°
2026-05-07 16:36 41.57284 -71.94950 19119 ft 432 kts 68°
2026-05-07 16:36 41.58403 -71.91218 18643 ft 432 kts 70°
2026-05-07 16:36 41.59462 -71.87506 18179 ft 431 kts 70°
2026-05-07 16:36 41.60517 -71.83761 17670 ft 429 kts 70°
2026-05-07 16:37 41.61571 -71.80046 17207 ft 426 kts 70°
2026-05-07 16:37 41.62632 -71.76362 16736 ft 423 kts 70°
2026-05-07 16:37 41.63703 -71.72694 16271 ft 421 kts 70°
2026-05-07 16:37 41.64419 -71.70270 15959 ft 420 kts 70°
2026-05-07 16:38 41.65851 -71.65429 15339 ft 417 kts 70°
2026-05-07 16:38 41.66556 -71.63045 15038 ft 415 kts 70°
2026-05-07 16:38 41.67594 -71.59525 14842 ft 405 kts 70°
2026-05-07 16:38 41.68615 -71.56062 14700 ft 393 kts 70°
2026-05-07 16:39 41.69606 -71.52693 14119 ft 386 kts 70°
2026-05-07 16:39 41.70579 -71.49364 13598 ft 379 kts 71°
2026-05-07 16:39 41.71523 -71.46120 13109 ft 369 kts 71°
2026-05-07 16:39 41.72501 -71.42948 12647 ft 367 kts 65°
2026-05-07 16:40 41.73732 -71.39975 12127 ft 362 kts 61°
2026-05-07 16:40 41.74978 -71.37063 11521 ft 359 kts 61°
2026-05-07 16:40 41.76219 -71.34181 10942 ft 355 kts 62°
2026-05-07 16:40 41.77558 -71.31428 10457 ft 354 kts 50°
2026-05-07 16:41 41.79295 -71.29128 10191 ft 348 kts 36°
2026-05-07 16:41 41.81301 -71.27450 10004 ft 337 kts 20°
2026-05-07 16:41 41.83448 -71.26323 9883 ft 325 kts 14°
2026-05-07 16:41 41.85548 -71.25288 9758 ft 317 kts 15°
2026-05-07 16:42 41.87600 -71.24268 9624 ft 309 kts 15°
2026-05-07 16:42 41.89588 -71.23274 9465 ft 302 kts 15°
2026-05-07 16:42 41.91522 -71.22311 9211 ft 299 kts 15°
2026-05-07 16:42 41.93479 -71.21342 8907 ft 297 kts 15°
2026-05-07 16:43 41.95413 -71.20386 8627 ft 296 kts 15°
2026-05-07 16:43 41.97339 -71.19433 8365 ft 293 kts 15°
2026-05-07 16:43 41.99253 -71.18485 8092 ft 291 kts 15°
2026-05-07 16:43 42.01156 -71.17542 7648 ft 296 kts 15°
2026-05-07 16:44 42.03159 -71.16558 6849 ft 316 kts 16°
2026-05-07 16:44 42.05264 -71.15533 6010 ft 335 kts 16°
2026-05-07 16:44 42.07507 -71.14459 5492 ft 339 kts 16°
2026-05-07 16:44 42.09703 -71.13407 5264 ft 334 kts 17°
2026-05-07 16:45 42.11902 -71.12354 4841 ft 334 kts 17°
2026-05-07 16:45 42.14095 -71.11301 4400 ft 334 kts 16°
2026-05-07 16:45 42.16288 -71.10248 3949 ft 334 kts 17°
2026-05-07 16:45 42.18482 -71.09194 3500 ft 332 kts 17°
2026-05-07 16:46 42.20618 -71.08165 3072 ft 320 kts 16°
2026-05-07 16:46 42.22675 -71.07174 2653 ft 308 kts 16°
2026-05-07 16:46 42.24658 -71.06220 2248 ft 298 kts 17°
2026-05-07 16:46 42.26580 -71.05295 1846 ft 287 kts 19°
2026-05-07 16:47 42.28365 -71.04434 1482 ft 264 kts 19°
2026-05-07 16:47 42.30024 -71.03634 1128 ft 243 kts 20°
2026-05-07 16:47 42.31553 -71.02896 875 ft 221 kts 18°
2026-05-07 16:47 42.32936 -71.02240 613 ft 193 kts
2026-05-07 16:48 42.34081 -71.01665 345 ft 168 kts 26°
2026-05-07 16:48 42.35086 -71.01175 72 ft 142 kts 18°
2026-05-07 16:48 42.35908 -71.00797 22 ft 95 kts 18°
2026-05-07 16:48 42.36271 -71.00642 27 ft 18 kts 353°
2026-05-07 16:49 42.36381 -71.00691 28 ft 17 kts 343°
2026-05-07 16:49 42.36452 -71.00823 28 ft 19 kts 291°
2026-05-07 16:49 42.36482 -71.00967 29 ft 16 kts 307°
2026-05-07 16:49 42.36539 -71.01112 30 ft 20 kts 290°
2026-05-07 16:50 42.36547 -71.01217 25 ft 12 kts 237°
2026-05-07 16:50 42.36460 -71.01267 23 ft 15 kts 198°
2026-05-07 16:50 42.36352 -71.01314 23 ft 17 kts 197°
2026-05-07 16:50 42.36233 -71.01382 23 ft 20 kts 203°
2026-05-07 16:51 42.36105 -71.01440 26 ft 20 kts 203°
2026-05-07 16:51 42.35971 -71.01512 26 ft 22 kts 211°
2026-05-07 16:51 42.35829 -71.01585 27 ft 22 kts 201°
2026-05-07 16:51 42.35717 -71.01694 28 ft 18 kts 240°